NKS548 KIAH-KDFW

Flight info

Callsign NKS548
Flight time 0h 36m
Altitude 22000
Route BLTWY7 CRIED WHINY4
Aircraft A321/M-SDE3FGHIRWY/LB1

Departure

Time 2026-05-06 23:38
Airport George Bush Intercontinental Airport (KIAH)

Arrival

Time 2026-05-07 00:15
Airport Dallas Fort Worth International Airport (KDFW)
Time Latitude Longitude Altitude Speed Heading
2026-05-06 23:13 29.98811 -95.35049 107 ft 0 kts 180°
2026-05-06 23:30 29.98814 -95.35049 107 ft 3 kts 180°
2026-05-06 23:31 29.98837 -95.35048 105 ft 4 kts 175°
2026-05-06 23:31 29.98860 -95.35058 106 ft 4 kts 131°
2026-05-06 23:31 29.98873 -95.35084 104 ft 4 kts 105°
2026-05-06 23:31 29.98877 -95.35113 106 ft 3 kts 90°
2026-05-06 23:32 29.98877 -95.35139 107 ft 1 kts 90°
2026-05-06 23:34 29.98882 -95.35112 106 ft 8 kts 71°
2026-05-06 23:34 29.98947 -95.35079 107 ft 13 kts
2026-05-06 23:35 29.99038 -95.35078 107 ft 14 kts
2026-05-06 23:35 29.99090 -95.35150 107 ft 14 kts 272°
2026-05-06 23:35 29.99087 -95.35278 107 ft 18 kts 268°
2026-05-06 23:35 29.99089 -95.35425 105 ft 19 kts 270°
2026-05-06 23:36 29.99083 -95.35580 107 ft 19 kts 272°
2026-05-06 23:36 29.99092 -95.35735 107 ft 20 kts 274°
2026-05-06 23:36 29.99093 -95.35896 107 ft 20 kts 258°
2026-05-06 23:36 29.99042 -95.36024 107 ft 16 kts 228°
2026-05-06 23:37 29.98947 -95.36007 107 ft 15 kts 152°
2026-05-06 23:37 29.98849 -95.35981 108 ft 15 kts 211°
2026-05-06 23:37 29.98796 -95.36081 108 ft 14 kts 240°
2026-05-06 23:37 29.98714 -95.36099 108 ft 15 kts 155°
2026-05-06 23:38 29.98500 -95.35969 107 ft 68 kts 152°
2026-05-06 23:38 29.97879 -95.35587 106 ft 131 kts 152°
2026-05-06 23:38 29.96926 -95.35009 188 ft 171 kts 150°
2026-05-06 23:38 29.95893 -95.34347 802 ft 170 kts 150°
2026-05-06 23:39 29.94819 -95.33743 1316 ft 176 kts 169°
2026-05-06 23:39 29.93566 -95.33892 1472 ft 192 kts 209°
2026-05-06 23:39 29.92607 -95.35003 1621 ft 206 kts 246°
2026-05-06 23:39 29.92399 -95.36685 1736 ft 226 kts 281°
2026-05-06 23:40 29.93090 -95.38363 2001 ft 245 kts 310°
2026-05-06 23:40 29.94519 -95.39497 2540 ft 259 kts 340°
2026-05-06 23:40 29.96334 -95.39795 3242 ft 268 kts 355°
2026-05-06 23:40 29.98213 -95.39917 3946 ft 273 kts 355°
2026-05-06 23:41 30.00132 -95.40033 4672 ft 278 kts 355°
2026-05-06 23:41 30.02079 -95.40150 5367 ft 283 kts 355°
2026-05-06 23:41 30.04057 -95.40269 6050 ft 287 kts 355°
2026-05-06 23:41 30.06065 -95.40393 6717 ft 290 kts 354°
2026-05-06 23:42 30.08094 -95.40521 7390 ft 293 kts 354°
2026-05-06 23:42 30.10134 -95.40651 8062 ft 295 kts 354°
2026-05-06 23:42 30.12195 -95.40782 8738 ft 297 kts 353°
2026-05-06 23:42 30.14260 -95.40909 9411 ft 300 kts 353°
2026-05-06 23:43 30.16366 -95.41040 9866 ft 303 kts 353°
2026-05-06 23:43 30.18488 -95.41173 10274 ft 311 kts 352°
2026-05-06 23:43 30.20726 -95.41321 10405 ft 333 kts 352°
2026-05-06 23:43 30.23114 -95.41480 10522 ft 354 kts 353°
2026-05-06 23:44 30.25643 -95.41640 10737 ft 371 kts 353°
2026-05-06 23:44 30.28246 -95.41797 11224 ft 378 kts 353°
2026-05-06 23:44 30.30868 -95.42086 11768 ft 378 kts 345°
2026-05-06 23:44 30.33422 -95.42694 12320 ft 381 kts 343°
2026-05-06 23:45 30.36022 -95.43326 12867 ft 385 kts 342°
2026-05-06 23:45 30.38696 -95.43980 13410 ft 389 kts 342°
2026-05-06 23:45 30.41358 -95.44631 13896 ft 392 kts 342°
2026-05-06 23:45 30.44004 -95.45278 14350 ft 396 kts 341°
2026-05-06 23:46 30.46713 -95.45940 14815 ft 400 kts 341°
2026-05-06 23:46 30.49444 -95.46608 15287 ft 403 kts 341°
2026-05-06 23:46 30.52201 -95.47275 15777 ft 407 kts 342°
2026-05-06 23:46 30.54993 -95.47922 16265 ft 411 kts 342°
2026-05-06 23:47 30.57810 -95.48551 16785 ft 415 kts 342°
2026-05-06 23:47 30.60663 -95.49179 17279 ft 419 kts 342°
2026-05-06 23:47 30.63538 -95.49813 17775 ft 423 kts 342°
2026-05-06 23:47 30.66436 -95.50457 18263 ft 426 kts 341°
2026-05-06 23:48 30.69364 -95.51116 18704 ft 430 kts 341°
2026-05-06 23:48 30.72307 -95.51781 19166 ft 432 kts 341°
2026-05-06 23:48 30.75266 -95.52452 19629 ft 435 kts 341°
2026-05-06 23:48 30.78250 -95.53125 20070 ft 438 kts 341°
2026-05-06 23:49 30.81249 -95.53804 20520 ft 440 kts 341°
2026-05-06 23:49 30.84266 -95.54490 20967 ft 443 kts 341°
2026-05-06 23:49 30.86313 -95.54955 21245 ft 445 kts 341°
2026-05-06 23:49 30.89360 -95.55648 21647 ft 447 kts 341°
2026-05-06 23:50 30.92420 -95.56349 22049 ft 450 kts 340°
2026-05-06 23:50 30.98607 -95.57759 22832 ft 456 kts 340°
2026-05-06 23:50 31.01729 -95.58465 23232 ft 458 kts 340°
2026-05-06 23:51 31.04829 -95.59167 23598 ft 461 kts 340°
2026-05-06 23:51 31.07984 -95.59886 23943 ft 463 kts 340°
2026-05-06 23:51 31.11152 -95.60610 24293 ft 465 kts 340°
2026-05-06 23:51 31.14339 -95.61338 24672 ft 467 kts 340°
2026-05-06 23:52 31.17578 -95.62077 25039 ft 469 kts 340°
2026-05-06 23:52 31.20745 -95.62798 25375 ft 471 kts 340°
2026-05-06 23:52 31.23964 -95.63536 25713 ft 473 kts 340°
2026-05-06 23:52 31.27191 -95.64277 25886 ft 473 kts 339°
2026-05-06 23:53 31.30417 -95.65015 25945 ft 472 kts 340°
2026-05-06 23:53 31.33592 -95.65870 25928 ft 463 kts 333°
2026-05-06 23:53 31.36556 -95.67203 25931 ft 451 kts 324°
2026-05-06 23:53 31.39257 -95.68970 25931 ft 441 kts 318°
2026-05-06 23:54 31.41857 -95.70886 25935 ft 441 kts 318°
2026-05-06 23:54 31.44450 -95.72794 25940 ft 441 kts 318°
2026-05-06 23:54 31.47054 -95.74701 25939 ft 441 kts 318°
2026-05-06 23:54 31.49654 -95.76602 25939 ft 440 kts 318°
2026-05-06 23:55 31.52248 -95.78501 25939 ft 440 kts 318°
2026-05-06 23:55 31.54837 -95.80403 25949 ft 439 kts 318°
2026-05-06 23:55 31.57431 -95.82307 25947 ft 439 kts 318°
2026-05-06 23:55 31.60015 -95.84206 25945 ft 439 kts 318°
2026-05-06 23:56 31.62603 -95.86111 25950 ft 439 kts 318°
2026-05-06 23:56 31.65182 -95.88018 25974 ft 439 kts 317°
2026-05-06 23:56 31.67768 -95.89929 25995 ft 439 kts 317°
2026-05-06 23:56 31.70352 -95.91829 25991 ft 439 kts 318°
2026-05-06 23:57 31.72977 -95.93680 25582 ft 439 kts 319°
2026-05-06 23:57 31.75624 -95.95461 25005 ft 439 kts 320°
2026-05-06 23:57 31.78318 -95.97238 24379 ft 450 kts 321°
2026-05-06 23:57 31.81060 -95.99039 23739 ft 452 kts 321°
2026-05-06 23:58 31.83804 -96.00839 23030 ft 450 kts 321°
2026-05-06 23:58 31.86508 -96.02660 22471 ft 446 kts 320°
2026-05-06 23:58 31.89152 -96.04522 21925 ft 440 kts 319°
2026-05-06 23:58 31.91744 -96.06406 21388 ft 435 kts 319°
2026-05-06 23:59 31.94305 -96.08293 20867 ft 435 kts 319°
2026-05-06 23:59 31.96866 -96.10184 20327 ft 434 kts 319°
2026-05-06 23:59 31.99422 -96.12058 19792 ft 432 kts 319°
2026-05-06 23:59 32.01970 -96.13912 19266 ft 430 kts 320°
2026-05-07 00:00 32.04511 -96.15750 18740 ft 428 kts 320°
2026-05-07 00:00 32.07042 -96.17580 18195 ft 426 kts 319°
2026-05-07 00:00 32.09559 -96.19398 17640 ft 423 kts 320°
2026-05-07 00:00 32.12060 -96.21210 17121 ft 420 kts 320°
2026-05-07 00:01 32.14544 -96.23009 16602 ft 417 kts 320°
2026-05-07 00:01 32.17004 -96.24792 16090 ft 414 kts 320°
2026-05-07 00:01 32.19449 -96.26566 15605 ft 411 kts 320°
2026-05-07 00:01 32.21871 -96.28325 15060 ft 407 kts 321°
2026-05-07 00:02 32.24268 -96.30069 14655 ft 402 kts 321°
2026-05-07 00:02 32.26646 -96.31810 14551 ft 402 kts 320°
2026-05-07 00:02 32.28758 -96.33881 14282 ft 391 kts 307°
2026-05-07 00:02 32.30620 -96.36203 13775 ft 386 kts 307°
2026-05-07 00:03 32.32500 -96.38466 13294 ft 388 kts 311°
2026-05-07 00:03 32.34519 -96.40582 12842 ft 387 kts 313°
2026-05-07 00:03 32.36558 -96.42652 12397 ft 386 kts 314°
2026-05-07 00:03 32.38481 -96.44825 11955 ft 377 kts 303°
2026-05-07 00:04 32.39868 -96.47397 11501 ft 366 kts 296°
2026-05-07 00:04 32.41103 -96.49952 11040 ft 348 kts 295°
2026-05-07 00:04 32.42255 -96.52392 10599 ft 332 kts 295°
2026-05-07 00:04 32.43337 -96.54710 10390 ft 309 kts 295°
2026-05-07 00:05 32.44327 -96.56831 10182 ft 282 kts 295°
2026-05-07 00:05 32.45258 -96.58821 9612 ft 273 kts 296°
2026-05-07 00:05 32.46404 -96.60631 8947 ft 276 kts 305°
2026-05-07 00:05 32.47614 -96.62385 8534 ft 274 kts 305°
2026-05-07 00:06 32.48808 -96.64129 8104 ft 272 kts 305°
2026-05-07 00:06 32.49991 -96.65866 7667 ft 270 kts 305°
2026-05-07 00:06 32.51167 -96.67592 7264 ft 268 kts 306°
2026-05-07 00:06 32.52335 -96.69304 6869 ft 267 kts 306°
2026-05-07 00:07 32.53503 -96.71010 6491 ft 266 kts 307°
2026-05-07 00:07 32.54666 -96.72709 6117 ft 264 kts 307°
2026-05-07 00:07 32.55814 -96.74387 5991 ft 262 kts 307°
2026-05-07 00:07 32.56970 -96.76081 5999 ft 265 kts 307°
2026-05-07 00:08 32.58126 -96.77773 5997 ft 264 kts 307°
2026-05-07 00:08 32.59280 -96.79464 5999 ft 264 kts 307°
2026-05-07 00:08 32.60432 -96.81158 5891 ft 263 kts 307°
2026-05-07 00:08 32.61583 -96.82850 5777 ft 265 kts 307°
2026-05-07 00:09 32.62727 -96.84529 5650 ft 265 kts 308°
2026-05-07 00:09 32.63885 -96.86225 5527 ft 265 kts 308°
2026-05-07 00:09 32.65043 -96.87922 5189 ft 264 kts 308°
2026-05-07 00:09 32.66215 -96.89642 4789 ft 264 kts 308°
2026-05-07 00:10 32.67364 -96.91333 4464 ft 259 kts 309°
2026-05-07 00:10 32.68487 -96.92986 4004 ft 256 kts 310°
2026-05-07 00:10 32.69586 -96.94606 3637 ft 254 kts 310°
2026-05-07 00:10 32.70684 -96.96225 3596 ft 243 kts 311°
2026-05-07 00:11 32.71720 -96.97752 3507 ft 232 kts 311°
2026-05-07 00:11 32.72701 -96.99199 3426 ft 218 kts 311°
2026-05-07 00:11 32.73634 -97.00576 3312 ft 210 kts 312°
2026-05-07 00:11 32.74584 -97.01823 3231 ft 199 kts 324°
2026-05-07 00:12 32.75736 -97.02537 3147 ft 177 kts 346°
2026-05-07 00:12 32.76893 -97.02688 3039 ft 161 kts
2026-05-07 00:12 32.78040 -97.02673 2677 ft 168 kts
2026-05-07 00:12 32.79197 -97.02665 2375 ft 163 kts
2026-05-07 00:13 32.80281 -97.02659 2134 ft 148 kts
2026-05-07 00:13 32.81307 -97.02653 1897 ft 158 kts
2026-05-07 00:13 32.82367 -97.02647 1692 ft 146 kts
2026-05-07 00:13 32.83359 -97.02642 1486 ft 140 kts
2026-05-07 00:14 32.84329 -97.02633 1287 ft 140 kts
2026-05-07 00:14 32.85293 -97.02634 1142 ft 138 kts
2026-05-07 00:14 32.86250 -97.02631 961 ft 139 kts
2026-05-07 00:14 32.87217 -97.02626 769 ft 138 kts
2026-05-07 00:15 32.88180 -97.02619 589 ft 137 kts
2026-05-07 00:15 32.89024 -97.02610 575 ft 101 kts
2026-05-07 00:15 32.89366 -97.02612 572 ft 16 kts 359°
2026-05-07 00:15 32.89394 -97.02685 569 ft 10 kts 271°
2026-05-07 00:16 32.89394 -97.02772 569 ft 10 kts 269°
2026-05-07 00:16 32.89393 -97.02852 572 ft 9 kts 270°
2026-05-07 00:16 32.89394 -97.02912 574 ft 8 kts 270°
2026-05-07 00:16 32.89394 -97.03005 576 ft 13 kts 270°
2026-05-07 00:17 32.89394 -97.03116 576 ft 14 kts 270°
2026-05-07 00:17 32.89395 -97.03234 580 ft 13 kts 270°
2026-05-07 00:17 32.89395 -97.03329 585 ft 14 kts 270°
2026-05-07 00:17 32.89396 -97.03461 586 ft 17 kts 271°
2026-05-07 00:18 32.89397 -97.03605 586 ft 18 kts 271°
2026-05-07 00:18 32.89384 -97.03674 586 ft 9 kts 229°
2026-05-07 00:18 32.89331 -97.03705 584 ft 5 kts 203°
2026-05-07 00:18 32.89312 -97.03715 584 ft 2 kts 204°
2026-05-07 00:19 32.89310 -97.03716 584 ft 0 kts 204°